Tracking 28790 objects as of 19-Apr-2024
HD Live streaming from Space Station
objects crossing your sky now

XSS 10

Track XSS 10 now!
10-day predictions
XSS 10 is classified as:


NORAD ID: 27664
Int'l Code: 2003-005B
Perigee: 509.4 km
Apogee: 739.9 km
Inclination: 39.7 °
Period: 97.1 minutes
Semi major axis: 6995 km
RCS: 0.183 m2 (medium)
Launch date: January 29, 2003
Source: United States (US)
Launch site: AIR FORCE EASTERN TEST RANGE (AFETR)
Your satellite tracking list
Your tracking list is empty




NASA's NSSDC Master Catalog

Two Line Element Set (TLE):
1 27664U 03005B   24109.49815426  .00006814  00000-0  64905-3 0  9994
2 27664  39.7477 178.2529 0164728 251.4289 106.8538 14.83753860145014
Source of the keplerian elements: AFSPC